Showing default

COSMOS 2610, 68758

Orbit data source: Space-Track

COSMOS 2610, 68758 is a payload satellite owned by VVKO VKS (CIS) in SSO that was launched on Thu, 16 Apr 2026 UTC via a SOYUZ-2-1B launch vehicle from the Plesetsk Missile And Space Complex (PKMTR). Payload-class satellites include a variety of spacecraft equipped with specific instruments for various scientific and technological missions. These include communications satellites like Starlink; space stations such as the ISS; scientific satellites like the Hubble; Earth observation satellites from companies like Planet Labs, Umbra, and HawkEye 360; GPS; miniature CubeSats for education and research; and military/defense satellites.

Loading next visibility...
Identifier
68758, 2026-083F
Orbit
SSO
Country
Flag of CISCIS
Related business
Manufacturer
Unknown (RU)
Mission
Operational spacecraft
Bus & Motor
UNK, Unknown motor
Mass
~500 kg wet, ~500 kg dry
Launch date (UTC)
2026-04-16 (1 month ago)
Launch vehicle
SOYUZ-2-1B
Launch site
Plesetsk Missile And Space Complex (PKMTR)
Object type
Payload
Rocket body
Debris
Shape & HBR
Unknown shape, 14.5 m
Radar Cross Section
RCS unknown

Expand to show TLE details & history
Last TLE update: 7 hours ago

TLE from 7 hours ago
0 COSMOS 2610
1 68758U 26083F   26138.71299427  .00001470  00000-0  10411-3 0  9996
2 68758  97.8014 276.2983 0011459 148.1222 212.0700 15.06376479  4769
Epoch: 2026-05-18T17:06Z
TLE epoch observation values (Epoch: 2026-05-18T17:06:42.704Z)
Latitude
-0.00008°
Longitude
143.22307°
Altitude
557.073 km
Speed
7.579 km/s
True Right ascension
18h 25m 11s
True Declination
0° 00' 00"
Sunlit
Object was in full shadow at epoch
Visualization orbit readout
Latitude
Unknown
Longitude
Unknown
Altitude
Unknown
Speed
Unknown
Apparent Right ascension
Unknown
Apparent Declination
Unknown
Sunlit
N/A
Visualization observer readout
Local Sidereal Time
09:18:52
Azimuth
Unknown
Elevation
Unknown
Doppler factor
Unknown
Orbital elements
Apogee altitude
552.217 km
Perigee altitude
536.353 km
Semi-major axis
6,922.422 km
Eccentricity
0.00115
Inclination
97.8014°
RAAN
276.2983°
Arg. of periapsis
148.1222°
True anomaly
212.00036°
Mean anomaly
212.07°
Eccentric anomaly
212.03517°
Mean motion
3.76839 °/min
Orbital period
95.53 mins
BSTAR
0.00010411
Loading maneuver chart data...
Computing Atmospheric mass density...
Loading historical data...
Loading historical data...
Loading historical data...
Loading historical data...
Loading historical data...
Loading historical data...
Loading historical data...

Documentation

Showing up to 5 results
|